Time,TemperatureF,DewpointF,PressureIn,WindDirection,WindDirectionDegrees,WindSpeedMPH,WindSpeedGustMPH,Humidity,HourlyPrecipIn,Conditions,Clouds,dailyrainin,SoftwareType,DateUTC
2013-06-27 00:00:00,79.7,63.1,29.88,NW,325,1.0,2.0,57,0.00,CLR,,0.00,WeatherDisplay:10.37,2013-06-27 05:00:00,
2013-06-27 00:10:00,79.9,63.3,29.88,NW,325,1.0,2.0,57,0.00,CLR,,0.00,WeatherDisplay:10.37,2013-06-27 05:10:00,
2013-06-27 00:15:00,79.8,63.2,29.88,NW,325,1.0,2.0,57,0.00,CLR,,0.00,WeatherDisplay:10.37,2013-06-27 05:15:00,
2013-06-27 00:20:00,79.7,63.1,29.88,NW,325,1.0,2.0,57,0.00,CLR,,0.00,WeatherDisplay:10.37,2013-06-27 05:20:00,
2013-06-27 00:25:00,79.7,63.1,29.88,NW,325,1.0,2.0,57,0.00,CLR,,0.00,WeatherDisplay:10.37,2013-06-27 05:25:00,
2013-06-27 00:30:00,79.7,63.1,29.88,NW,325,1.0,2.0,57,0.00,CLR,,0.00,WeatherDisplay:10.37,2013-06-27 05:30:00,
2013-06-27 00:40:00,79.5,63.4,29.88,NW,325,2.0,3.0,58,0.00,CLR,,0.00,WeatherDisplay:10.37,2013-06-27 05:40:00,
2013-06-27 00:45:00,79.3,63.2,29.88,NW,325,1.0,2.0,58,0.00,CLR,,0.00,WeatherDisplay:10.37,2013-06-27 05:45:00,
2013-06-27 00:50:00,79.3,63.2,29.88,NW,325,1.0,2.0,58,0.00,CLR,,0.00,WeatherDisplay:10.37,2013-06-27 05:50:00,
2013-06-27 01:00:00,79.3,63.2,29.88,NW,325,0.0,1.0,58,0.00,CLR,,0.00,WeatherDisplay:10.37,2013-06-27 06:00:00,
2013-06-27 01:10:00,79.4,63.3,29.88,NW,325,0.0,1.0,58,0.00,CLR,,0.00,WeatherDisplay:10.37,2013-06-27 06:10:00,
2013-06-27 01:15:00,79.5,63.4,29.88,NW,325,1.0,2.0,58,0.00,CLR,,0.00,WeatherDisplay:10.37,2013-06-27 06:15:00,
2013-06-27 01:25:00,79.7,63.6,29.88,NW,325,1.0,2.0,58,0.00,CLR,,0.00,WeatherDisplay:10.37,2013-06-27 06:25:00,
2013-06-27 01:30:00,79.7,63.6,29.88,NW,325,1.0,2.0,58,0.00,CLR,,0.00,WeatherDisplay:10.37,2013-06-27 06:30:00,
2013-06-27 01:40:00,79.5,63.4,29.88,NW,325,1.0,2.0,58,0.00,CLR,,0.00,WeatherDisplay:10.37,2013-06-27 06:40:00,
2013-06-27 01:50:00,79.4,63.3,29.88,NW,325,1.0,1.0,58,0.00,CLR,,0.00,WeatherDisplay:10.37,2013-06-27 06:50:00,
2013-06-27 02:00:00,79.4,63.3,29.88,NW,325,0.0,1.0,58,0.00,CLR,,0.00,WeatherDisplay:10.37,2013-06-27 07:00:00,
2013-06-27 02:10:00,79.1,63.0,29.88,NW,325,0.0,3.0,58,0.00,CLR,,0.00,WeatherDisplay:10.37,2013-06-27 07:10:00,
2013-06-27 02:20:00,78.5,63.5,29.88,NW,325,1.0,2.0,60,0.00,CLR,,0.00,WeatherDisplay:10.37,2013-06-27 07:20:00,
2013-06-27 02:25:00,78.4,63.3,29.88,NW,325,1.0,2.0,60,0.00,CLR,,0.00,WeatherDisplay:10.37,2013-06-27 07:25:00,
2013-06-27 02:30:00,78.4,63.3,29.88,NW,325,1.0,2.0,60,0.00,CLR,,0.00,WeatherDisplay:10.37,2013-06-27 07:30:00,
2013-06-27 02:40:00,78.5,63.5,29.88,NW,325,1.0,2.0,60,0.00,CLR,,0.00,WeatherDisplay:10.37,2013-06-27 07:40:00,
2013-06-27 02:45:00,78.7,63.6,29.88,NW,325,1.0,2.0,60,0.00,CLR,,0.00,WeatherDisplay:10.37,2013-06-27 07:45:00,
2013-06-27 02:50:00,78.8,63.2,29.88,NW,326,0.0,2.0,59,0.00,CLR,,0.00,WeatherDisplay:10.37,2013-06-27 07:50:00,
2013-06-27 02:55:00,78.7,63.1,29.88,NW,326,0.0,1.0,59,0.00,CLR,,0.00,WeatherDisplay:10.37,2013-06-27 07:55:00,
2013-06-27 03:00:00,78.3,63.3,29.88,NW,326,1.0,2.0,60,0.00,CLR,,0.00,WeatherDisplay:10.37,2013-06-27 08:00:00,
2013-06-27 03:10:00,76.4,63.3,29.89,NW,322,0.0,1.0,64,0.00,CLR,,0.00,WeatherDisplay:10.37,2013-06-27 08:10:00,
2013-06-27 03:15:00,76.2,63.5,29.89,NW,322,0.0,1.0,65,0.00,CLR,,0.00,WeatherDisplay:10.37,2013-06-27 08:15:00,
2013-06-27 03:20:00,76.1,63.5,29.89,NW,322,0.0,2.0,65,0.00,CLR,,0.00,WeatherDisplay:10.37,2013-06-27 08:20:00,
2013-06-27 03:30:00,75.7,64.0,29.89,NW,322,0.0,2.0,67,0.00,CLR,,0.00,WeatherDisplay:10.37,2013-06-27 08:30:00,
2013-06-27 03:40:00,74.8,64.0,29.89,NW,322,0.0,2.0,69,0.00,CLR,,0.00,WeatherDisplay:10.37,2013-06-27 08:40:00,
2013-06-27 03:45:00,74.5,64.1,29.89,NW,322,0.0,2.0,70,0.00,CLR,,0.00,WeatherDisplay:10.37,2013-06-27 08:45:00,
2013-06-27 03:50:00,74.3,63.8,29.89,NW,322,0.0,2.0,70,0.00,CLR,,0.00,WeatherDisplay:10.37,2013-06-27 08:50:00,
2013-06-27 04:00:00,74.3,63.8,29.89,NW,322,0.0,0.0,70,0.00,CLR,,0.00,WeatherDisplay:10.37,2013-06-27 09:00:00,
2013-06-27 04:10:00,74.2,63.3,29.89,NW,322,1.0,2.0,69,0.00,CLR,,0.00,WeatherDisplay:10.37,2013-06-27 09:10:00,
2013-06-27 04:15:00,74.6,63.7,29.89,NW,307,1.0,3.0,69,0.00,CLR,,0.00,WeatherDisplay:10.37,2013-06-27 09:15:00,
2013-06-27 04:20:00,74.6,63.8,29.89,WNW,298,0.0,2.0,69,0.00,CLR,,0.00,WeatherDisplay:10.37,2013-06-27 09:20:00,
2013-06-27 04:30:00,74.4,63.6,29.90,West,279,0.0,2.0,69,0.00,CLR,,0.00,WeatherDisplay:10.37,2013-06-27 09:30:00,
2013-06-27 04:40:00,75.0,63.7,29.90,SSE,165,0.0,2.0,68,0.00,CLR,,0.00,WeatherDisplay:10.37,2013-06-27 09:40:00,
2013-06-27 04:45:00,75.3,63.5,29.90,SSE,164,0.0,1.0,67,0.00,CLR,,0.00,WeatherDisplay:10.37,2013-06-27 09:45:00,
2013-06-27 04:50:00,75.5,63.7,29.90,SSE,165,0.0,1.0,67,0.00,CLR,,0.00,WeatherDisplay:10.37,2013-06-27 09:50:00,
2013-06-27 04:55:00,75.6,63.8,29.90,SSE,164,0.0,1.0,67,0.00,CLR,,0.00,WeatherDisplay:10.37,2013-06-27 09:55:00,
2013-06-27 05:00:00,75.6,63.4,29.90,SSE,165,0.0,1.0,66,0.00,CLR,,0.00,WeatherDisplay:10.37,2013-06-27 10:00:00,
2013-06-27 05:10:00,75.8,63.6,29.90,SSE,165,0.0,2.0,66,0.00,CLR,,0.00,WeatherDisplay:10.37,2013-06-27 10:10:00,
2013-06-27 05:15:00,75.8,63.6,29.90,SSE,164,0.0,1.0,66,0.00,CLR,,0.00,WeatherDisplay:10.37,2013-06-27 10:15:00,
2013-06-27 05:20:00,75.7,63.6,29.90,SSE,164,0.0,1.0,66,0.00,CLR,,0.00,WeatherDisplay:10.37,2013-06-27 10:20:00,
2013-06-27 05:30:00,76.0,63.3,29.91,SSE,165,0.0,0.0,65,0.00,CLR,,0.00,WeatherDisplay:10.37,2013-06-27 10:30:00,
2013-06-27 05:40:00,76.0,63.4,29.91,SSE,164,0.0,2.0,65,0.00,CLR,,0.00,WeatherDisplay:10.37,2013-06-27 10:40:00,
2013-06-27 05:45:00,76.1,63.4,29.91,SSE,164,0.0,1.0,65,0.00,CLR,,0.00,WeatherDisplay:10.37,2013-06-27 10:45:00,
2013-06-27 05:50:00,76.2,63.6,29.91,SSE,164,1.0,4.0,65,0.00,CLR,,0.00,WeatherDisplay:10.37,2013-06-27 10:50:00,
2013-06-27 05:55:00,76.3,63.3,29.91,SSE,164,1.0,2.0,64,0.00,CLR,,0.00,WeatherDisplay:10.37,2013-06-27 10:55:00,
2013-06-27 06:00:00,76.6,63.0,29.90,SSE,164,0.0,2.0,63,0.00,CLR,,0.00,WeatherDisplay:10.37,2013-06-27 11:00:00,
2013-06-27 06:10:00,76.5,63.4,29.90,SSE,164,0.0,1.0,64,0.00,CLR,,0.00,WeatherDisplay:10.37,2013-06-27 11:10:00,
2013-06-27 06:20:00,76.4,63.7,29.91,SSE,164,0.0,1.0,65,0.00,CLR,,0.00,WeatherDisplay:10.37,2013-06-27 11:20:00,
2013-06-27 06:25:00,76.4,63.3,29.91,SSE,163,0.0,1.0,64,0.00,CLR,,0.00,WeatherDisplay:10.37,2013-06-27 11:25:00,
2013-06-27 06:30:00,76.5,63.8,29.90,SSE,163,0.0,1.0,65,0.00,CLR,,0.00,WeatherDisplay:10.37,2013-06-27 11:30:00,
2013-06-27 06:40:00,76.5,63.9,29.91,SSE,163,0.0,1.0,65,0.00,CLR,,0.00,WeatherDisplay:10.37,2013-06-27 11:40:00,
2013-06-27 06:45:00,76.7,63.6,29.91,SSE,163,1.0,2.0,64,0.00,CLR,,0.00,WeatherDisplay:10.37,2013-06-27 11:45:00,
2013-06-27 06:50:00,77.0,63.8,29.91,SSE,163,0.0,2.0,64,0.00,CLR,,0.00,WeatherDisplay:10.37,2013-06-27 11:50:00,
2013-06-27 06:55:00,77.1,64.4,29.91,SSE,163,0.0,1.0,65,0.00,CLR,,0.00,WeatherDisplay:10.37,2013-06-27 11:55:00,
2013-06-27 07:00:00,77.3,64.6,29.90,SSE,163,0.0,2.0,65,0.00,CLR,,0.00,WeatherDisplay:10.37,2013-06-27 12:00:00,
2013-06-27 07:10:00,77.4,64.8,29.90,SSE,162,1.0,3.0,65,0.00,CLR,,0.00,WeatherDisplay:10.37,2013-06-27 12:10:00,
2013-06-27 07:15:00,77.6,64.9,29.90,SSE,160,1.0,3.0,65,0.00,CLR,,0.00,WeatherDisplay:10.37,2013-06-27 12:15:00,
2013-06-27 07:20:00,77.8,65.1,29.90,SSE,159,1.0,2.0,65,0.00,CLR,,0.00,WeatherDisplay:10.37,2013-06-27 12:20:00,
2013-06-27 07:25:00,77.9,65.6,29.91,SSE,159,1.0,2.0,66,0.00,CLR,,0.00,WeatherDisplay:10.37,2013-06-27 12:25:00,
2013-06-27 07:30:00,78.1,65.8,29.91,SSE,156,1.0,4.0,66,0.00,CLR,,0.00,WeatherDisplay:10.37,2013-06-27 12:30:00,
2013-06-27 07:40:00,78.6,65.8,29.91,SE,139,2.0,4.0,65,0.00,CLR,,0.00,WeatherDisplay:10.37,2013-06-27 12:40:00,
2013-06-27 07:50:00,79.2,66.4,29.91,SE,143,2.0,5.0,65,0.00,CLR,,0.00,WeatherDisplay:10.37,2013-06-27 12:50:00,
2013-06-27 07:55:00,79.5,66.3,29.92,SSE,156,1.0,5.0,64,0.00,CLR,,0.00,WeatherDisplay:10.37,2013-06-27 12:55:00,
2013-06-27 08:00:00,79.7,66.4,29.92,SSE,161,2.0,5.0,64,0.00,CLR,,0.00,WeatherDisplay:10.37,2013-06-27 13:00:00,
2013-06-27 08:10:00,80.2,67.3,29.92,SSE,162,1.0,4.0,65,0.00,CLR,,0.00,WeatherDisplay:10.37,2013-06-27 13:10:00,
2013-06-27 08:15:00,80.5,67.2,29.92,SSE,162,2.0,4.0,64,0.00,CLR,,0.00,WeatherDisplay:10.37,2013-06-27 13:15:00,
2013-06-27 08:25:00,81.3,68.0,29.92,SSE,162,1.0,4.0,64,0.00,CLR,,0.00,WeatherDisplay:10.37,2013-06-27 13:25:00,
2013-06-27 08:30:00,81.6,67.8,29.92,SSE,167,2.0,5.0,63,0.00,CLR,,0.00,WeatherDisplay:10.37,2013-06-27 13:30:00,
2013-06-27 08:40:00,82.2,68.8,29.92,SSE,168,2.0,4.0,64,0.00,CLR,,0.00,WeatherDisplay:10.37,2013-06-27 13:40:00,
2013-06-27 08:45:00,82.5,69.6,29.92,South,173,2.0,6.0,65,0.00,CLR,,0.00,WeatherDisplay:10.37,2013-06-27 13:45:00,
2013-06-27 08:50:00,82.8,70.7,29.93,South,187,3.0,6.0,67,0.00,CLR,,0.00,WeatherDisplay:10.37,2013-06-27 13:50:00,
2013-06-27 08:55:00,83.2,71.5,29.93,SSW,194,2.0,6.0,68,0.00,CLR,,0.00,WeatherDisplay:10.37,2013-06-27 13:55:00,
2013-06-27 09:00:00,83.6,72.4,29.92,SSW,197,2.0,6.0,69,0.00,CLR,,0.00,WeatherDisplay:10.37,2013-06-27 14:00:00,
2013-06-27 09:10:00,83.4,72.6,29.92,SSW,209,6.0,8.0,70,0.00,CLR,,0.00,WeatherDisplay:10.37,2013-06-27 14:10:00,
2013-06-27 09:15:00,83.1,72.3,29.93,SSW,212,5.0,7.0,70,0.00,CLR,,0.00,WeatherDisplay:10.37,2013-06-27 14:15:00,
2013-06-27 09:25:00,82.6,73.0,29.92,SSW,213,2.0,7.0,73,0.00,CLR,,0.00,WeatherDisplay:10.37,2013-06-27 14:25:00,
2013-06-27 09:30:00,82.4,72.8,29.92,SW,214,2.0,7.0,73,0.00,CLR,,0.00,WeatherDisplay:10.37,2013-06-27 14:30:00,
2013-06-27 09:35:00,82.2,72.7,29.93,SSW,213,3.0,7.0,73,0.00,CLR,,0.00,WeatherDisplay:10.37,2013-06-27 14:35:00,
2013-06-27 09:40:00,82.2,72.6,29.93,SW,215,3.0,9.0,73,0.00,CLR,,0.00,WeatherDisplay:10.37,2013-06-27 14:40:00,
2013-06-27 09:45:00,82.1,73.0,29.93,SW,216,2.0,5.0,74,0.00,CLR,,0.00,WeatherDisplay:10.37,2013-06-27 14:45:00,
2013-06-27 09:50:00,82.1,72.9,29.93,SW,216,0.0,3.0,74,0.00,CLR,,0.00,WeatherDisplay:10.37,2013-06-27 14:50:00,
2013-06-27 10:00:00,82.4,74.0,29.93,SW,215,0.0,0.0,76,0.00,CLR,,0.00,WeatherDisplay:10.37,2013-06-27 15:00:00,
2013-06-27 10:10:00,82.0,73.3,29.93,SW,215,0.0,0.0,75,0.00,CLR,,0.00,WeatherDisplay:10.37,2013-06-27 15:10:00,
2013-06-27 10:15:00,81.9,73.5,29.92,SW,215,0.0,0.0,76,0.00,CLR,,0.00,WeatherDisplay:10.37,2013-06-27 15:15:00,
2013-06-27 10:20:00,81.8,73.5,29.93,SW,215,0.0,0.0,76,0.00,CLR,,0.00,WeatherDisplay:10.37,2013-06-27 15:20:00,
2013-06-27 10:30:00,81.2,73.7,29.95,West,261,3.0,5.0,78,0.00,CLR,,0.00,WeatherDisplay:10.37,2013-06-27 15:30:00,
2013-06-27 10:40:00,78.3,68.1,29.98,NNW,341,6.0,17.0,71,0.00,CLR,,0.00,WeatherDisplay:10.37,2013-06-27 15:40:00,
2013-06-27 10:45:00,77.8,68.1,29.98,NNW,345,6.0,8.0,72,0.00,CLR,,0.00,WeatherDisplay:10.37,2013-06-27 15:45:00,
2013-06-27 10:50:00,77.5,66.9,29.98,North,6,6.0,12.0,70,0.00,CLR,,0.00,WeatherDisplay:10.37,2013-06-27 15:50:00,
2013-06-27 10:55:00,77.0,65.6,29.97,NNE,25,6.0,10.0,68,0.00,CLR,,0.00,WeatherDisplay:10.37,2013-06-27 15:55:00,
2013-06-27 11:00:00,76.6,65.7,29.98,NNE,26,5.0,9.0,69,0.00,CLR,,0.00,WeatherDisplay:10.37,2013-06-27 16:00:00,
2013-06-27 11:10:00,75.7,65.2,29.99,North,7,5.0,7.0,70,0.00,CLR,,0.00,WeatherDisplay:10.37,2013-06-27 16:10:00,
2013-06-27 11:20:00,74.8,65.2,29.99,NNE,24,6.0,12.0,72,0.00,CLR,,0.00,WeatherDisplay:10.37,2013-06-27 16:20:00,
2013-06-27 11:25:00,74.4,65.6,29.99,NE,37,6.0,9.0,74,0.00,CLR,,0.00,WeatherDisplay:10.37,2013-06-27 16:25:00,
2013-06-27 11:30:00,73.9,65.5,29.99,NNE,28,5.0,9.0,75,0.00,CLR,,0.00,WeatherDisplay:10.37,2013-06-27 16:30:00,
2013-06-27 11:40:00,73.3,65.6,30.00,NNE,18,3.0,7.0,77,0.00,CLR,,0.00,WeatherDisplay:10.37,2013-06-27 16:40:00,
2013-06-27 11:45:00,72.9,65.7,30.00,North,6,6.0,8.0,78,0.00,CLR,,0.00,WeatherDisplay:10.37,2013-06-27 16:45:00,
2013-06-27 11:50:00,72.6,65.7,29.99,North,353,5.0,7.0,79,0.00,CLR,,0.00,WeatherDisplay:10.37,2013-06-27 16:50:00,
2013-06-27 11:55:00,72.3,65.8,29.98,North,8,6.0,10.0,80,0.00,CLR,,0.00,WeatherDisplay:10.37,2013-06-27 16:55:00,
2013-06-27 12:00:00,72.1,65.9,29.98,NNE,27,3.0,10.0,81,0.00,CLR,,0.00,WeatherDisplay:10.37,2013-06-27 17:00:00,
2013-06-27 12:10:00,71.8,65.6,29.96,NE,47,6.0,12.0,81,0.00,CLR,,0.00,WeatherDisplay:10.37,2013-06-27 17:10:00,
2013-06-27 12:15:00,71.8,65.6,29.94,ENE,68,8.0,12.0,81,0.00,CLR,,0.00,WeatherDisplay:10.37,2013-06-27 17:15:00,
2013-06-27 12:25:00,72.1,65.9,29.95,NE,55,5.0,8.0,81,0.00,CLR,,0.00,WeatherDisplay:10.37,2013-06-27 17:25:00,
2013-06-27 12:30:00,72.0,65.9,29.95,NE,50,6.0,9.0,81,0.00,CLR,,0.00,WeatherDisplay:10.37,2013-06-27 17:30:00,
2013-06-27 12:40:00,72.1,65.6,29.95,ENE,61,6.0,9.0,80,0.00,CLR,,0.00,WeatherDisplay:10.37,2013-06-27 17:40:00,
2013-06-27 12:50:00,72.6,65.7,29.95,East,81,3.0,8.0,79,0.00,CLR,,0.00,WeatherDisplay:10.37,2013-06-27 17:50:00,
2013-06-27 12:55:00,72.9,66.0,29.95,East,94,2.0,6.0,79,0.00,CLR,,0.00,WeatherDisplay:10.37,2013-06-27 17:55:00,
2013-06-27 13:00:00,73.0,66.4,29.96,ESE,106,3.0,6.0,80,0.00,CLR,,0.00,WeatherDisplay:10.37,2013-06-27 18:00:00,
2013-06-27 13:10:00,73.2,67.0,29.95,ESE,116,2.0,5.0,81,0.00,CLR,,0.00,WeatherDisplay:10.37,2013-06-27 18:10:00,
2013-06-27 13:15:00,73.4,66.8,29.95,SE,130,2.0,4.0,80,0.00,CLR,,0.00,WeatherDisplay:10.37,2013-06-27 18:15:00,
2013-06-27 13:20:00,73.6,67.0,29.95,SE,142,2.0,5.0,80,0.00,CLR,,0.00,WeatherDisplay:10.37,2013-06-27 18:20:00,
2013-06-27 13:30:00,74.0,67.1,29.94,SSE,148,3.0,7.0,79,0.00,CLR,,0.00,WeatherDisplay:10.37,2013-06-27 18:30:00,
2013-06-27 13:40:00,74.9,67.9,29.94,SSE,157,3.0,6.0,79,0.00,CLR,,0.00,WeatherDisplay:10.37,2013-06-27 18:40:00,
2013-06-27 13:45:00,75.6,68.2,29.94,SSE,156,3.0,8.0,78,0.00,CLR,,0.00,WeatherDisplay:10.37,2013-06-27 18:45:00,
2013-06-27 13:50:00,76.2,67.7,29.93,SSE,161,5.0,8.0,75,0.00,CLR,,0.00,WeatherDisplay:10.37,2013-06-27 18:50:00,
2013-06-27 13:55:00,76.9,68.3,29.93,South,170,3.0,7.0,75,0.00,CLR,,0.00,WeatherDisplay:10.37,2013-06-27 18:55:00,
2013-06-27 14:00:00,77.6,67.9,29.93,SSE,166,3.0,6.0,72,0.00,CLR,,0.00,WeatherDisplay:10.37,2013-06-27 19:00:00,
2013-06-27 14:10:00,78.4,68.6,29.92,SE,146,2.0,6.0,72,0.00,CLR,,0.00,WeatherDisplay:10.37,2013-06-27 19:10:00,
2013-06-27 14:15:00,78.8,69.4,29.91,SE,146,2.0,6.0,73,0.00,CLR,,0.00,WeatherDisplay:10.37,2013-06-27 19:15:00,
2013-06-27 14:20:00,79.4,69.6,29.91,SE,140,3.0,7.0,72,0.00,CLR,,0.00,WeatherDisplay:10.37,2013-06-27 19:20:00,
2013-06-27 14:30:00,79.1,68.9,29.92,SSE,164,2.0,3.0,71,0.00,CLR,,0.00,WeatherDisplay:10.37,2013-06-27 19:30:00,
2013-06-27 14:40:00,79.0,69.2,29.92,South,169,2.0,3.0,72,0.00,CLR,,0.00,WeatherDisplay:10.37,2013-06-27 19:40:00,
2013-06-27 14:50:00,79.6,70.2,29.93,South,169,0.0,3.0,73,0.00,CLR,,0.00,WeatherDisplay:10.37,2013-06-27 19:50:00,
2013-06-27 14:55:00,79.9,69.3,29.93,SSE,167,2.0,4.0,70,0.00,CLR,,0.00,WeatherDisplay:10.37,2013-06-27 19:55:00,
2013-06-27 15:00:00,80.3,70.1,29.93,SSE,164,2.0,4.0,71,0.00,CLR,,0.00,WeatherDisplay:10.37,2013-06-27 20:00:00,
2013-06-27 15:10:00,80.9,69.3,29.92,East,84,3.0,8.0,68,0.00,CLR,,0.00,WeatherDisplay:10.37,2013-06-27 20:10:00,
2013-06-27 15:20:00,80.9,69.3,29.92,ENE,75,1.0,7.0,68,0.00,CLR,,0.00,WeatherDisplay:10.37,2013-06-27 20:20:00,
2013-06-27 15:30:00,81.0,69.4,29.92,East,82,0.0,3.0,68,0.00,CLR,,0.00,WeatherDisplay:10.37,2013-06-27 20:30:00,
2013-06-27 15:45:00,80.5,69.8,29.91,East,92,2.0,5.0,70,0.00,CLR,,0.00,WeatherDisplay:10.37,2013-06-27 20:45:00,
2013-06-27 15:50:00,80.2,70.0,29.91,ESE,110,1.0,4.0,71,0.00,CLR,,0.00,WeatherDisplay:10.37,2013-06-27 20:50:00,
2013-06-27 15:55:00,80.1,70.2,29.92,ESE,120,1.0,4.0,72,0.00,CLR,,0.00,WeatherDisplay:10.37,2013-06-27 20:55:00,
2013-06-27 16:00:00,79.9,70.5,29.91,ESE,123,1.0,3.0,73,0.00,CLR,,0.00,WeatherDisplay:10.37,2013-06-27 21:00:00,
2013-06-27 16:10:00,79.1,70.5,29.92,NE,39,3.0,7.0,75,0.00,CLR,,0.00,WeatherDisplay:10.37,2013-06-27 21:10:00,
2013-06-27 16:15:00,78.9,70.3,29.92,NE,40,1.0,10.0,75,0.00,CLR,,0.00,WeatherDisplay:10.37,2013-06-27 21:15:00,
2013-06-27 16:20:00,78.8,70.2,29.90,East,88,3.0,5.0,75,0.00,CLR,,0.00,WeatherDisplay:10.37,2013-06-27 21:20:00,
2013-06-27 16:30:00,78.4,70.2,29.85,SSE,158,7.0,13.0,76,0.00,CLR,,0.00,WeatherDisplay:10.37,2013-06-27 21:30:00,
2013-06-27 16:40:00,78.5,69.5,29.84,SSE,165,5.0,9.0,74,0.00,CLR,,0.00,WeatherDisplay:10.37,2013-06-27 21:40:00,
2013-06-27 16:50:00,78.6,70.4,29.86,SSE,159,3.0,8.0,76,0.00,CLR,,0.00,WeatherDisplay:10.37,2013-06-27 21:50:00,
2013-06-27 17:00:00,78.8,70.6,29.86,NE,54,8.0,14.0,76,0.00,CLR,,0.00,WeatherDisplay:10.37,2013-06-27 22:00:00,
2013-06-27 17:15:00,79.3,69.9,29.85,SE,126,3.0,7.0,73,0.00,CLR,,0.00,WeatherDisplay:10.37,2013-06-27 22:15:00,
2013-06-27 17:20:00,79.3,70.3,29.86,ESE,107,5.0,8.0,74,0.00,CLR,,0.00,WeatherDisplay:10.37,2013-06-27 22:20:00,
2013-06-27 17:30:00,78.7,70.5,29.88,NNE,28,3.0,6.0,76,0.00,CLR,,0.00,WeatherDisplay:10.37,2013-06-27 22:30:00,
2013-06-27 17:35:00,78.5,70.3,29.87,NNE,26,5.0,7.0,76,0.00,CLR,,0.00,WeatherDisplay:10.37,2013-06-27 22:35:00,
2013-06-27 17:45:00,78.4,70.6,29.88,NE,42,5.0,9.0,77,0.00,CLR,,0.00,WeatherDisplay:10.37,2013-06-27 22:45:00,
2013-06-27 17:50:00,78.5,70.7,29.88,NE,44,5.0,8.0,77,0.00,CLR,,0.00,WeatherDisplay:10.37,2013-06-27 22:50:00,
2013-06-27 18:00:00,78.6,70.8,29.88,NE,36,2.0,6.0,77,0.00,CLR,,0.00,WeatherDisplay:10.37,2013-06-27 23:00:00,
2013-06-27 18:10:00,78.9,70.6,29.87,NE,41,1.0,3.0,76,0.00,FEW,,0.00,WeatherDisplay:10.37,2013-06-27 23:10:00,
2013-06-27 18:20:00,79.6,70.2,29.86,ENE,59,0.0,2.0,73,0.00,FEW,,0.00,WeatherDisplay:10.37,2013-06-27 23:20:00,
2013-06-27 18:25:00,80.1,70.3,29.85,ENE,68,0.0,2.0,72,0.00,FEW,,0.00,WeatherDisplay:10.37,2013-06-27 23:25:00,
2013-06-27 18:30:00,80.6,69.9,29.86,ENE,68,0.0,2.0,70,0.00,FEW,,0.00,WeatherDisplay:10.37,2013-06-27 23:30:00,
2013-06-27 18:40:00,81.6,70.4,29.85,East,81,1.0,3.0,69,0.00,FEW,,0.00,WeatherDisplay:10.37,2013-06-27 23:40:00,
2013-06-27 18:45:00,81.6,70.0,29.85,East,88,0.0,2.0,68,0.00,FEW,,0.00,WeatherDisplay:10.37,2013-06-27 23:45:00,
2013-06-27 18:55:00,81.4,70.3,29.84,East,90,2.0,3.0,69,0.00,FEW,,0.00,WeatherDisplay:10.37,2013-06-27 23:55:00,
2013-06-27 19:00:00,80.8,70.5,29.85,East,90,1.0,3.0,71,0.00,FEW,,0.00,WeatherDisplay:10.37,2013-06-28 00:00:00,
2013-06-27 19:10:00,79.6,70.2,29.86,ENE,61,2.0,5.0,73,0.00,CLR,,0.00,WeatherDisplay:10.37,2013-06-28 00:10:00,
2013-06-27 19:15:00,79.2,70.2,29.86,NE,41,2.0,5.0,74,0.00,CLR,,0.00,WeatherDisplay:10.37,2013-06-28 00:15:00,
2013-06-27 19:25:00,78.5,71.1,29.87,NNE,28,5.0,6.0,78,0.00,CLR,,0.00,WeatherDisplay:10.37,2013-06-28 00:25:00,
2013-06-27 19:30:00,77.8,70.7,29.89,NNE,13,5.0,7.0,79,0.00,CLR,,0.00,WeatherDisplay:10.37,2013-06-28 00:30:00,
2013-06-27 19:45:00,75.3,68.7,29.89,North,1,6.0,9.0,80,0.00,CLR,,0.00,WeatherDisplay:10.37,2013-06-28 00:45:00,
2013-06-27 19:50:00,74.9,68.7,29.89,NNW,348,6.0,7.0,81,0.00,CLR,,0.00,WeatherDisplay:10.37,2013-06-28 00:50:00,
2013-06-27 20:00:00,74.4,67.9,29.88,NNE,26,6.0,13.0,80,0.00,CLR,,0.00,WeatherDisplay:10.37,2013-06-28 01:00:00,
2013-06-27 20:10:00,73.8,67.6,29.87,NE,38,6.0,8.0,81,0.00,-RA,,0.00,WeatherDisplay:10.37,2013-06-28 01:10:00,
2013-06-27 20:15:00,73.4,67.2,29.89,NNE,32,6.0,9.0,81,0.00,-RA,,0.00,WeatherDisplay:10.37,2013-06-28 01:15:00,
2013-06-27 20:20:00,73.2,66.7,29.89,NNE,29,5.0,10.0,80,0.00,-RA,,0.00,WeatherDisplay:10.37,2013-06-28 01:20:00,
2013-06-27 20:40:00,72.4,66.9,29.88,NE,37,3.0,7.0,83,0.00,-RA,,0.00,WeatherDisplay:10.37,2013-06-28 01:40:00,
2013-06-27 20:50:00,72.1,66.6,29.88,NE,36,5.0,8.0,83,0.00,-RA,,0.00,WeatherDisplay:10.37,2013-06-28 01:50:00,
2013-06-27 21:00:00,71.9,66.8,29.90,NNE,17,3.0,6.0,84,0.00,-RA,,0.00,WeatherDisplay:10.37,2013-06-28 02:00:00,
2013-06-27 21:10:00,71.7,66.6,29.91,North,4,3.0,5.0,84,0.00,SCT,,0.00,WeatherDisplay:10.37,2013-06-28 02:10:00,
2013-06-27 21:15:00,71.6,66.8,29.91,North,10,2.0,4.0,85,0.00,SCT,,0.00,WeatherDisplay:10.37,2013-06-28 02:15:00,
2013-06-27 21:20:00,71.5,66.7,29.90,North,4,2.0,5.0,85,0.00,SCT,,0.00,WeatherDisplay:10.37,2013-06-28 02:20:00,
2013-06-27 21:25:00,71.4,66.6,29.90,North,360,1.0,4.0,85,0.00,SCT,,0.00,WeatherDisplay:10.37,2013-06-28 02:25:00,
2013-06-27 21:30:00,71.3,66.5,29.89,North,360,2.0,4.0,85,0.00,SCT,,0.00,WeatherDisplay:10.37,2013-06-28 02:30:00,
2013-06-27 21:40:00,71.4,66.6,29.91,North,353,1.0,6.0,85,0.00,SCT,,0.00,WeatherDisplay:10.37,2013-06-28 02:40:00,
2013-06-27 21:45:00,71.6,66.5,29.93,WSW,237,7.0,13.0,84,0.00,SCT,,0.00,WeatherDisplay:10.37,2013-06-28 02:45:00,
2013-06-27 21:50:00,71.9,66.5,29.93,SW,223,2.0,8.0,83,0.00,SCT,,0.00,WeatherDisplay:10.37,2013-06-28 02:50:00,
2013-06-27 22:00:00,73.1,66.2,29.92,SSW,213,2.0,3.0,79,0.01,RA,,0.01,WeatherDisplay:10.37,2013-06-28 03:00:00,
2013-06-27 22:10:00,72.4,66.6,29.93,SSW,197,1.0,3.0,82,0.00,RA,,0.01,WeatherDisplay:10.37,2013-06-28 03:10:00,
2013-06-27 22:20:00,72.0,66.6,29.92,SSW,196,2.0,3.0,83,0.00,RA,,0.01,WeatherDisplay:10.37,2013-06-28 03:20:00,
2013-06-27 22:30:00,71.7,66.6,29.93,SSW,196,1.0,3.0,84,0.00,BKN,,0.01,WeatherDisplay:10.37,2013-06-28 03:30:00,
2013-06-27 22:40:00,71.6,66.8,29.93,South,184,2.0,4.0,85,0.00,BKN,,0.01,WeatherDisplay:10.37,2013-06-28 03:40:00,
2013-06-27 22:50:00,71.7,67.0,29.95,NE,38,2.0,5.0,85,0.00,BKN,,0.01,WeatherDisplay:10.37,2013-06-28 03:50:00,
2013-06-27 22:55:00,71.8,67.0,29.94,NE,37,2.0,5.0,85,0.00,BKN,,0.01,WeatherDisplay:10.37,2013-06-28 03:55:00,
2013-06-27 23:00:00,71.9,67.1,29.95,NE,42,2.0,4.0,85,0.00,BKN,,0.01,WeatherDisplay:10.37,2013-06-28 04:00:00,
2013-06-27 23:05:00,71.9,67.1,29.96,ENE,62,5.0,7.0,85,0.00,OVC,,0.01,WeatherDisplay:10.37,2013-06-28 04:05:00,
2013-06-27 23:10:00,72.0,67.2,29.96,ENE,67,1.0,5.0,85,0.00,OVC,,0.01,WeatherDisplay:10.37,2013-06-28 04:10:00,
2013-06-27 23:15:00,72.0,67.3,29.97,ENE,68,1.0,6.0,85,0.00,OVC,,0.01,WeatherDisplay:10.37,2013-06-28 04:15:00,
2013-06-27 23:20:00,72.1,67.3,29.97,ENE,76,1.0,3.0,85,0.00,OVC,,0.01,WeatherDisplay:10.37,2013-06-28 04:20:00,
2013-06-27 23:30:00,72.0,67.3,29.95,SE,135,1.0,3.0,85,0.00,OVC,,0.01,WeatherDisplay:10.37,2013-06-28 04:30:00,
2013-06-27 23:40:00,71.8,67.0,29.94,SE,125,1.0,4.0,85,0.00,OVC,,0.01,WeatherDisplay:10.37,2013-06-28 04:40:00,
2013-06-27 23:45:00,71.7,67.3,29.92,ESE,122,1.0,3.0,86,0.00,OVC,,0.01,WeatherDisplay:10.37,2013-06-28 04:45:00,
2013-06-27 23:50:00,71.6,67.1,29.92,ESE,123,0.0,3.0,86,0.00,OVC,,0.01,WeatherDisplay:10.37,2013-06-28 04:50:00,